Regional Weather Roundup
Issued by NWS

Home | Current Version | Previous Version | Text Only | Print | Product List | Glossary On
Versions: 1 2 3 4 5 6 7 8 9 10 11 12 13 14 15 16 17 18 19 20 21 22 23 24 25 26 27 28 29 30 31 32 33 34 35 36 37 38 39 40 41 42 43 44 45 46 47 48 49 50
000
ASUS43 KLMK 221010
RWRKY
KENTUCKY REGIONAL WEATHER ROUNDUP
NATIONAL WEATHER SERVICE LOUISVILLE KY
600 AM EDT SUN OCT 22 2017

NOTE "FAIR" INDICATES FEW OR NO CLOUDS BELOW 12,000 FEET
WITH NO SIGNIFICANT WEATHER AND/OR OBSTRUCTIONS TO VISIBILITY.

KYZ001>023-026-027-061>063-070>075-221100-
WESTERN AND SOUTH CENTRAL KENTUCKY

CITY           SKY/WX    TMP DP  RH WIND       PRES   REMARKS
PADUCAH        CLOUDY    68  59  73 SE10      30.01S
HENDERSON      PTCLDY    62  56  80 E3        30.07R
OWENSBORO      CLOUDY    62  54  74 SE12      30.08S
HOPKINSVILLE   CLOUDY    63  56  77 SE7       30.09S
BOWLING GREEN  PTCLDY    57  53  86 E3        30.13F
GLASGOW        MOCLDY    60  49  67 SE7       30.14F
$$

KYZ024-025-028>034-038-045-046-053-221100-
NORTH CENTRAL KENTUCKY

CITY           SKY/WX    TMP DP  RH WIND       PRES   REMARKS
LOUISVILLE/SDF PTCLDY    58  50  75 SE6       30.14S
LOUISVILLE/LOU CLEAR     60  51  72 SE7       30.15S
FORT KNOX      CLEAR     58  49  73 SE7       30.12F
$$

KYZ035>037-039>044-047>052-055>060-089>105-221100-
NORTHEAST KENTUCKY

CITY           SKY/WX    TMP DP  RH WIND       PRES   REMARKS
LEXINGTON      PTCLDY    59  47  64 SE12      30.20F
COVINGTON      CLEAR     57  50  77 S7        30.17S
FRANKFORT      CLEAR     56  47  71 SE8       30.17F
$$

KYZ054-064>069-076>088-106>120-221100-
SOUTHEAST KENTUCKY

CITY           SKY/WX    TMP DP  RH WIND       PRES   REMARKS
JACKSON        CLEAR     58  46  64 CALM      30.26R
LONDON         CLEAR     46  44  93 CALM      30.24S
SOMERSET       PTCLDY    50  50 100 CALM      30.23F
MIDDLESBORO    CLEAR     45  45 100 CALM      30.28S
MONTICELLO     SUNNY     60  50  69 SE9       30.22F
$$





USA.gov is the U.S. government's official web portal to all federal, state and local government web resources and services.